Flag for Germany Weather past 2 weeks in Willich, North Rhine-Westphalia, Germany

Now
45 °F

Light rain. Passing clouds.


Feels Like: 38 °F
Forecast: 37 / 45 °F
Wind: 13 mph from West

Location: Monchengladbach Airport

Current Time: Dec 20, 2014 at 2:46:42 PM

Latest Report: Dec 20, 2014 at 1:50 PM


Visibility: 5 mi

Pressure: 30.09 "Hg

Humidity: 81%

Dew point: 39 °F

Location of WillichLocation

Historic Weather in Willich — Graph

°F

Willich temperature yesterday

Maximum temperature yesterday: 52 °F (at 7:50 AM)
Minimum temperature yesterday: 43 °F (at 6:50 PM)
Average temperature yesterday: 49 °F

Past Weeks' High & Low Weather Summary

 TemperatureHumidityPressure
High55 °F (Dec 18, 12:20 PM)100% (Dec 6, 8:20 AM)30.39 "Hg (Dec 6, 8:20 AM)
Low30 °F (Dec 14, 7:50 AM)66% (Dec 7, 12:50 PM)29.42 "Hg (Dec 12, 12:50 PM)
Average43 °F87%29.94 "Hg
* Reported Dec 5 1:20 PM — Dec 20 1:20 PM, Willich, Weather by CustomWeather, © 2014

Note: Actual official high and low records may vary slightly from our data, if they occured in-between our weather recording intervals... More about our weather records

Advertising

Willich weather history for previous 24 hours

 ConditionsComfort  
Time TempWeatherWind HumidityBarometerVisibility
1:20 PM
Dec 20
45 °FLight rain. Passing clouds.21 mph81%30.09 "Hg4 mi
12:50 PM45 °FLight rain. Passing clouds.14 mph76%30.12 "Hg4 mi
12:20 PM45 °FPassing clouds.14 mph76%30.12 "HgN/A
11:50 AM45 °FPassing clouds.13 mph76%30.12 "HgN/A
10:50 AM45 °FPassing clouds.14 mph76%30.12 "HgN/A
10:20 AM43 °FPartly cloudy.13 mph81%30.12 "HgN/A
9:50 AM43 °FPartly cloudy.13 mph81%30.12 "HgN/A
9:20 AM41 °FPartly cloudy.13 mph87%30.12 "HgN/A
8:50 AM41 °FPassing clouds.12 mph87%30.12 "HgN/A
8:20 AM41 °FPassing clouds.14 mph87%30.12 "HgN/A
7:50 AM41 °FPassing clouds.12 mph87%30.15 "HgN/A
8:20 PM
Dec 19
43 °FPassing clouds.7 mph81%30.07 "HgN/A
7:50 PM43 °FPassing clouds.6 mph81%30.04 "HgN/A
7:20 PM43 °FPassing clouds.7 mph87%30.04 "HgN/A
6:50 PM43 °FPassing clouds.7 mph81%30.01 "HgN/A
6:20 PM45 °FPassing clouds.7 mph76%30.01 "HgN/A
5:50 PM45 °FPassing clouds.9 mph76%29.98 "HgN/A
5:20 PM46 °FPassing clouds.7 mph76%29.98 "HgN/A
4:50 PM46 °FPassing clouds.10 mph76%29.95 "HgN/A
4:20 PM46 °FPassing clouds.9 mph82%29.95 "HgN/A
3:50 PM48 °FPassing clouds.12 mph82%29.92 "HgN/A
3:20 PM48 °FPassing clouds.14 mph82%29.89 "HgN/A
2:50 PM48 °FLight rain. Partly cloudy.13 mph94%29.89 "HgN/A
2:20 PM48 °FLight rain. Partly cloudy.18 mph94%29.86 "Hg5 mi
Weather by CustomWeather, © 2014

See weather overviewHow to use our weather pages